GW2041 Weather Reports


Display with metric or nautical units.
time (UTC)temp
F
wind
direction
speed
MPH
gust
MPH
rain 1hr
in
rain 24hr
in
rain mn
in
humidity
%
barometer
mb
20240304073826 44 293 4.0 10.0 0.00 0.00 0.00 93 1005.9
20240304073300 44 248 3.0 7.0 0.00 0.00 0.00 93 1005.4
20240304070308 44 248 2.0 4.0 0.00 0.00 0.00 93 1004.9
20240304064825 44 45 2.0 5.0 0.00 0.00 0.00 93 1004.9
20240304063826 44 270 3.0 9.0 0.00 0.00 0.00 93 1004.9
20240304062824 44 293 3.0 5.0 0.00 0.00 0.00 93 1004.5
20240304061826 44 225 2.0 5.0 0.00 0.00 0.00 93 1004.5
20240304060826 44 23 2.0 4.0 0.00 0.00 0.00 92 1004.3
20240304055825 44 225 3.0 5.0 0.00 0.00 0.00 92 1004.3
20240304054824 44 225 1.0 4.0 0.00 0.00 0.00 92 1004.3
20240304053825 44 225 2.0 5.0 0.00 0.00 0.00 92 1004.3
20240304052825 44 338 0.0 3.0 0.00 0.00 0.00 92 1003.8
20240304051825 44 293 1.0 6.0 0.00 0.00 0.00 92 1003.8
20240304050824 44 158 2.0 6.0 0.00 0.00 0.00 92 1003.9
20240304045825 44 180 2.0 4.0 0.00 0.00 0.00 92 1003.9
20240304045306 44 248 3.0 7.0 0.00 0.00 0.00 93 1003.4
20240304043823 44 315 4.0 7.0 0.00 0.00 0.00 93 1003.4
20240304042822 44 248 3.0 7.0 0.00 0.00 0.00 93 1003.2
20240304041824 44 0 3.0 7.0 0.00 0.00 0.00 92 1003.2
20240304041304 44 248 3.0 4.0 0.00 0.00 0.00 92 1003.1
20240304035824 44 248 2.0 8.0 0.00 0.00 0.00 92 1003.1
20240304035309 44 293 3.0 5.0 0.00 0.00 0.00 92 1003.1
20240304033824 43 270 3.0 8.0 0.00 0.00 0.00 92 1003.1
20240304033307 43 270 3.0 4.0 0.00 0.00 0.00 92 1002.9
20240304031821 42 270 3.0 5.0 0.00 0.00 0.00 92 1002.9
20240304030819 42 248 3.0 6.0 0.00 0.00 0.00 91 1002.8
20240304025818 42 270 4.0 6.0 0.00 0.00 0.00 91 1002.8
20240304024818 41 270 4.0 6.0 0.00 0.00 0.00 91 1002.6
20240304024302 41 248 3.0 6.0 0.00 0.00 0.00 90 1002.6
20240304022817 40 248 2.0 4.0 0.00 0.00 0.00 89 1002.4
20240304021819 40 248 1.0 4.0 0.00 0.00 0.00 89 1002.4
20240304020817 40 248 0.0 0.0 0.00 0.00 0.00 88 1002.3
20240304020253 40 248 0.0 0.0 0.00 0.00 0.00 88 1002.3
20240304014815 41 248 0.0 0.0 0.00 0.00 0.00 88 1002.1
20240304013818 41 225 0.0 0.0 0.00 0.00 0.00 88 1002.1
20240304011816 40 315 0.0 0.0 0.00 0.00 0.00 87 1002.1
20240304010817 41 315 0.0 0.0 0.00 0.00 0.00 87 1002.1
20240304005816 41 315 0.0 0.0 0.00 0.00 0.00 87 1002.1
20240304004817 41 315 0.0 0.0 0.00 0.00 0.00 87 1001.7
20240304003815 41 315 0.0 0.0 0.00 0.00 0.00 87 1001.7
20240304002813 41 315 0.0 0.0 0.00 0.00 0.00 87 1001.6
20240304001815 41 315 0.0 0.0 0.00 0.00 0.00 86 1001.6
20240304000815 42 315 0.0 0.0 0.00 0.00 0.00 86 1001.6
20240303235816 42 315 0.0 0.0 0.00 0.00 0.00 86 1001.6
20240303234815 42 315 0.0 0.0 0.00 0.00 0.00 86 1001.6
20240303233816 42 315 0.0 0.0 0.00 0.00 0.00 85 1001.6
20240303232812 42 315 0.0 0.0 0.00 0.00 0.00 85 1001.8
20240303231811 42 315 0.0 0.0 0.00 0.00 0.00 85 1001.8
20240303230813 43 315 0.0 0.0 0.00 0.00 0.00 85 1001.8
20240303225812 43 315 0.0 0.0 0.00 0.00 0.00 85 1001.8
20240303225251 43 315 0.0 0.0 0.00 0.00 0.00 85 1001.9
20240303222245 44 315 0.0 0.0 0.00 0.00 0.00 84 1002.1
20240303220812 44 315 0.0 0.0 0.00 0.00 0.00 83 1002.1
20240303220249 45 315 0.0 0.0 0.00 0.00 0.00 83 1002.1
20240303214812 45 315 0.0 0.0 0.00 0.00 0.00 83 1002.1
20240303213812 45 315 0.0 0.0 0.00 0.00 0.00 82 1002.1
20240303212812 46 315 0.0 0.0 0.00 0.00 0.00 82 1001.9
20240303212257 46 23 0.0 0.0 0.00 0.00 0.00 81 1001.9
20240303210813 47 23 0.0 0.0 0.00 0.00 0.00 81 1001.5
20240303205811 47 23 0.0 0.0 0.00 0.00 0.00 81 1001.5
20240303204812 47 23 0.0 0.0 0.00 0.00 0.00 80 1001.2
20240303203813 48 338 0.0 0.0 0.00 0.00 0.00 79 1001.2
20240303202812 48 23 0.0 2.0 0.00 0.00 0.00 79 1001.2
20240303201811 48 23 0.0 0.0 0.00 0.00 0.00 79 1001.2
20240303200813 49 338 1.0 4.0 0.00 0.00 0.00 78 1000.9
20240303195812 49 23 1.0 3.0 0.00 0.00 0.00 78 1000.9
20240303194811 49 45 1.0 3.0 0.00 0.00 0.00 77 1000.5
20240303193812 50 23 2.0 3.0 0.00 0.00 0.00 77 1000.5
20240303192812 50 23 2.0 2.0 0.00 0.00 0.00 76 1000.5
20240303191812 50 23 1.0 3.0 0.00 0.00 0.00 76 1000.5
20240303191250 51 23 1.0 2.0 0.00 0.00 0.00 75 1000.6
20240303190252 51 23 1.0 3.0 0.00 0.00 0.00 74 1000.6
20240303184812 51 45 1.0 3.0 0.00 0.00 0.00 73 1000.6
20240303183813 52 23 2.0 5.0 0.00 0.00 0.00 72 1000.6
20240303183251 52 45 1.0 3.0 0.00 0.00 0.00 71 1000.6
20240303182254 52 23 1.0 3.0 0.00 0.00 0.00 70 1000.6
20240303175810 53 68 1.0 3.0 0.00 0.00 0.00 69 1000.6
20240303175256 54 315 1.0 4.0 0.00 0.00 0.00 68 1000.4
20240303173812 54 0 2.0 3.0 0.00 0.00 0.00 67 1000.4
20240303172811 55 113 1.0 5.0 0.00 0.00 0.00 68 1000.4
20240303172251 55 203 0.0 1.0 0.00 0.00 0.00 67 1000.4
20240303170812 56 135 0.0 2.0 0.00 0.00 0.00 66 999.9
20240303165810 56 23 0.0 1.0 0.00 0.00 0.00 65 999.9
20240303165254 56 68 1.0 2.0 0.00 0.00 0.00 64 999.9
20240303163810 57 45 1.0 0.0 0.00 0.00 0.00 64 999.8
20240303163159 57 23 0.0 2.0 0.00 0.00 0.00 63 999.8
20240303162159 58 23 2.0 5.0 0.00 0.00 0.00 62 999.8
20240303161159 58 68 2.0 5.0 0.00 0.00 0.00 60 999.8
20240303160649 59 23 2.0 5.0 0.00 0.00 0.00 61 999.8
20240303155635 59 23 1.0 3.0 0.00 0.00 0.00 61 999.6
20240303154156 59 315 2.0 5.0 0.00 0.00 0.00 60 999.6
20240303153156 59 45 3.0 5.0 0.00 0.00 0.00 60 999.2
20240303152156 59 23 4.0 9.0 0.00 0.00 0.00 60 999.2
20240303151157 59 23 3.0 6.0 0.00 0.00 0.00 63 999.1
20240303150636 59 45 2.0 4.0 0.00 0.00 0.00 62 999.1
20240303145155 59 68 4.0 9.0 0.00 0.00 0.00 61 999.1
20240303144155 59 203 3.0 9.0 0.00 0.00 0.00 61 999.1
20240303143154 60 68 3.0 5.0 0.00 0.00 0.00 61 998.7
20240303142155 60 23 3.0 7.0 0.00 0.00 0.00 61 998.7
20240303141633 60 23 4.0 7.0 0.00 0.00 0.00 61 998.7
20240303140155 60 68 4.0 11.0 0.00 0.00 0.00 60 998.7
20240303135155 60 293 4.0 9.0 0.00 0.00 0.00 61 998.4
20240303134643 60 45 5.0 10.0 0.00 0.00 0.00 59 998.4
20240303133154 60 45 4.0 7.0 0.00 0.00 0.00 59 998.3
20240303132154 60 45 4.0 8.0 0.00 0.00 0.00 60 998.3
20240303131155 60 68 4.0 9.0 0.00 0.00 0.00 61 998.2
20240303130154 60 23 4.0 9.0 0.00 0.00 0.00 61 998.2
20240303125636 59 23 4.0 8.0 0.00 0.00 0.00 61 998.1
20240303124153 60 23 2.0 8.0 0.00 0.00 0.00 62 998.1
20240303123153 59 315 2.0 5.0 0.00 0.00 0.00 63 998.1
20240303122153 58 23 3.0 5.0 0.00 0.00 0.00 64 998.1
20240303121154 58 23 3.0 5.0 0.00 0.00 0.00 64 998.1
20240303120155 58 338 2.0 5.0 0.00 0.00 0.00 64 998.1
20240303115155 57 23 2.0 4.0 0.00 0.00 0.00 65 998.3
20240303114153 57 45 2.0 5.0 0.00 0.00 0.00 66 998.3
20240303113154 56 23 1.0 4.0 0.00 0.00 0.00 68 998.1
20240303112154 55 45 1.0 5.0 0.00 0.00 0.00 69 998.1
20240303111153 54 23 3.0 5.0 0.00 0.00 0.00 69 998.3
20240303110153 54 23 3.0 5.0 0.00 0.00 0.00 69 998.3
20240303104631 54 338 0.0 2.0 0.00 0.00 0.00 72 998.5
20240303103153 53 0 1.0 4.0 0.00 0.00 0.00 72 998.3
20240303102628 52 338 1.0 3.0 0.00 0.00 0.00 73 998.3
20240303101154 52 23 0.0 2.0 0.00 0.00 0.00 74 998.4
20240303100637 52 0 0.0 1.0 0.00 0.00 0.00 74 998.4
20240303095154 51 338 1.0 5.0 0.00 0.00 0.00 74 998.0
20240303094154 51 23 1.0 2.0 0.00 0.00 0.00 74 998.0
20240303092154 50 0 1.0 5.0 0.00 0.00 0.00 75 997.7
20240303091152 50 248 1.0 4.0 0.00 0.00 0.00 75 997.8
20240303090152 49 45 2.0 5.0 0.00 0.00 0.00 76 997.8
20240303085152 49 45 2.0 4.0 0.00 0.00 0.00 77 997.6
20240303084153 49 23 1.0 3.0 0.00 0.00 0.00 78 997.6
20240303083153 48 23 0.0 0.0 0.00 0.00 0.00 79 997.6
20240303082152 48 23 0.0 0.0 0.00 0.00 0.00 79 997.6
20240303081151 48 270 0.0 2.0 0.00 0.00 0.00 79 997.3
20240303080150 47 45 1.0 3.0 0.00 0.00 0.00 80 997.3
20240303075149 47 23 0.0 2.0 0.00 0.00 0.00 80 997.1
20240303074147 47 0 0.0 3.0 0.00 0.00 0.00 81 997.1